Time,TemperatureF,DewpointF,PressureIn,WindDirection,WindDirectionDegrees,WindSpeedMPH,WindSpeedGustMPH,Humidity,HourlyPrecipIn,Conditions,Clouds,dailyrainin,SoftwareType,DateUTC
2017-04-24 00:03:00,48.6,38.9,30.12,SE,134,0.0,2.0,69,0.00,,CLR,0.00,VWS V15.00,2017-04-24 04:03:00,
2017-04-24 00:08:00,48.5,38.8,30.12,ESE,117,0.0,1.0,69,0.00,,CLR,0.00,VWS V15.00,2017-04-24 04:08:00,
2017-04-24 00:13:00,48.3,38.6,30.12,SE,144,0.0,0.0,69,0.00,,CLR,0.00,VWS V15.00,2017-04-24 04:13:00,
2017-04-24 00:18:00,48.2,38.9,30.12,ESE,108,0.0,2.0,70,0.00,,CLR,0.00,VWS V15.00,2017-04-24 04:18:00,
2017-04-24 00:23:00,48.0,38.7,30.12,SE,135,0.0,2.0,70,0.00,,CLR,0.00,VWS V15.00,2017-04-24 04:23:00,
2017-04-24 00:28:00,47.9,39.0,30.12,ESE,113,0.0,3.0,71,0.00,,CLR,0.00,VWS V15.00,2017-04-24 04:28:00,
2017-04-24 00:33:00,47.7,38.8,30.12,SSE,150,0.0,3.0,71,0.00,,CLR,0.00,VWS V15.00,2017-04-24 04:33:00,
2017-04-24 00:38:00,47.6,38.7,30.12,SE,140,0.0,0.0,71,0.00,,CLR,0.00,VWS V15.00,2017-04-24 04:38:00,
2017-04-24 00:43:00,47.6,38.7,30.12,SE,139,0.0,0.0,71,0.00,,CLR,0.00,VWS V15.00,2017-04-24 04:43:00,
2017-04-24 00:48:00,47.4,38.5,30.12,SE,134,0.0,0.0,71,0.00,,CLR,0.00,VWS V15.00,2017-04-24 04:48:00,
2017-04-24 00:53:00,47.3,38.4,30.12,East,90,2.0,4.0,71,0.00,,CLR,0.00,VWS V15.00,2017-04-24 04:53:00,
2017-04-24 00:58:00,47.1,38.2,30.12,ESE,115,1.0,3.0,71,0.00,,CLR,0.00,VWS V15.00,2017-04-24 04:58:00,
2017-04-24 01:03:00,47.1,38.2,30.12,SE,137,0.0,2.0,71,0.00,,CLR,0.00,VWS V15.00,2017-04-24 05:03:00,
2017-04-24 01:08:00,47.0,38.1,30.12,ESE,121,0.0,2.0,71,0.00,,CLR,0.00,VWS V15.00,2017-04-24 05:08:00,
2017-04-24 01:13:00,46.8,38.3,30.12,ESE,115,0.0,4.0,72,0.00,,CLR,0.00,VWS V15.00,2017-04-24 05:13:00,
2017-04-24 01:18:00,46.8,38.3,30.12,South,170,0.0,2.0,72,0.00,,CLR,0.00,VWS V15.00,2017-04-24 05:18:00,
2017-04-24 01:23:00,46.7,38.2,30.12,SE,130,0.0,2.0,72,0.00,,CLR,0.00,VWS V15.00,2017-04-24 05:23:00,
2017-04-24 01:28:00,46.7,38.2,30.12,SE,137,1.0,1.0,72,0.00,,CLR,0.00,VWS V15.00,2017-04-24 05:28:00,
2017-04-24 01:33:00,46.5,38.0,30.11,ESE,110,1.0,1.0,72,0.00,,CLR,0.00,VWS V15.00,2017-04-24 05:33:00,
2017-04-24 01:38:00,46.4,37.9,30.11,East,90,2.0,4.0,72,0.00,,CLR,0.00,VWS V15.00,2017-04-24 05:38:00,
2017-04-24 01:43:00,46.4,38.2,30.11,ESE,103,0.0,2.0,73,0.00,,CLR,0.00,VWS V15.00,2017-04-24 05:43:00,
2017-04-24 01:48:00,46.2,38.0,30.11,ESE,121,1.0,1.0,73,0.00,,CLR,0.00,VWS V15.00,2017-04-24 05:48:00,
2017-04-24 01:53:00,46.2,38.0,30.11,SSE,156,0.0,2.0,73,0.00,,CLR,0.00,VWS V15.00,2017-04-24 05:53:00,
2017-04-24 01:58:00,46.1,37.9,30.11,SSE,156,0.0,1.0,73,0.00,,CLR,0.00,VWS V15.00,2017-04-24 05:58:00,
2017-04-24 02:03:00,46.1,37.9,30.11,SSE,156,0.0,0.0,73,0.00,,CLR,0.00,VWS V15.00,2017-04-24 06:03:00,
2017-04-24 02:08:00,46.1,38.3,30.11,SSE,156,0.0,0.0,74,0.00,,CLR,0.00,VWS V15.00,2017-04-24 06:08:00,
2017-04-24 02:13:00,46.0,38.2,30.11,SSE,156,0.0,0.0,74,0.00,,CLR,0.00,VWS V15.00,2017-04-24 06:13:00,
2017-04-24 02:18:00,45.8,38.0,30.11,SSE,156,0.0,0.0,74,0.00,,CLR,0.00,VWS V15.00,2017-04-24 06:18:00,
2017-04-24 02:23:00,45.8,38.0,30.11,SSE,156,0.0,0.0,74,0.00,,CLR,0.00,VWS V15.00,2017-04-24 06:23:00,
2017-04-24 02:28:00,45.7,37.9,30.11,SSE,156,0.0,0.0,74,0.00,,CLR,0.00,VWS V15.00,2017-04-24 06:28:00,
2017-04-24 02:33:00,45.5,37.7,30.11,SSE,156,0.0,0.0,74,0.00,,CLR,0.00,VWS V15.00,2017-04-24 06:33:00,
2017-04-24 02:38:00,45.4,37.6,30.11,SSE,156,0.0,0.0,74,0.00,,CLR,0.00,VWS V15.00,2017-04-24 06:38:00,
2017-04-24 02:43:00,45.2,37.4,30.11,SSE,156,0.0,0.0,74,0.00,,CLR,0.00,VWS V15.00,2017-04-24 06:43:00,
2017-04-24 02:48:00,45.1,37.7,30.11,SSE,156,0.0,0.0,75,0.00,,CLR,0.00,VWS V15.00,2017-04-24 06:48:00,
2017-04-24 02:53:00,44.8,37.4,30.11,SSE,156,0.0,0.0,75,0.00,,CLR,0.00,VWS V15.00,2017-04-24 06:53:00,
2017-04-24 02:58:00,44.6,37.5,30.11,SSE,156,0.0,0.0,76,0.00,,CLR,0.00,VWS V15.00,2017-04-24 06:58:00,
2017-04-24 03:03:00,44.3,37.2,30.10,SSE,156,0.0,0.0,76,0.00,,CLR,0.00,VWS V15.00,2017-04-24 07:03:00,
2017-04-24 03:08:00,44.2,37.1,30.10,SSE,156,0.0,0.0,76,0.00,,CLR,0.00,VWS V15.00,2017-04-24 07:08:00,
2017-04-24 03:13:00,44.1,37.4,30.10,SSE,156,0.0,0.0,77,0.00,,CLR,0.00,VWS V15.00,2017-04-24 07:13:00,
2017-04-24 03:18:00,43.9,37.2,30.10,SSE,156,0.0,0.0,77,0.00,,CLR,0.00,VWS V15.00,2017-04-24 07:18:00,
2017-04-24 03:23:00,43.8,37.4,30.10,SSE,156,0.0,0.0,78,0.00,,CLR,0.00,VWS V15.00,2017-04-24 07:23:00,
2017-04-24 03:28:00,43.6,37.2,30.10,SSE,156,0.0,0.0,78,0.00,,CLR,0.00,VWS V15.00,2017-04-24 07:28:00,
2017-04-24 03:33:00,43.5,37.1,30.10,SSE,156,0.0,0.0,78,0.00,,CLR,0.00,VWS V15.00,2017-04-24 07:33:00,
2017-04-24 03:38:00,43.3,37.2,30.10,SSE,156,0.0,0.0,79,0.00,,CLR,0.00,VWS V15.00,2017-04-24 07:38:00,
2017-04-24 03:43:00,43.3,37.2,30.10,SSE,156,0.0,0.0,79,0.00,,CLR,0.00,VWS V15.00,2017-04-24 07:43:00,
2017-04-24 03:48:00,43.2,37.5,30.10,SSE,156,0.0,0.0,80,0.00,,CLR,0.00,VWS V15.00,2017-04-24 07:48:00,
2017-04-24 03:53:00,43.2,37.5,30.10,SSE,156,0.0,0.0,80,0.00,,CLR,0.00,VWS V15.00,2017-04-24 07:53:00,
2017-04-24 03:54:00,43.2,37.5,30.10,SSE,156,0.0,0.0,80,0.00,,CLR,0.00,VWS V15.00,2017-04-24 07:54:00,
2017-04-24 03:59:00,43.1,37.7,30.10,SSE,156,0.0,0.0,81,0.00,,CLR,0.00,VWS V15.00,2017-04-24 07:59:00,
2017-04-24 04:04:00,43.1,37.7,30.10,SSE,156,0.0,0.0,81,0.00,,CLR,0.00,VWS V15.00,2017-04-24 08:04:00,
2017-04-24 04:09:00,42.9,37.5,30.10,SSE,156,0.0,0.0,81,0.00,,CLR,0.00,VWS V15.00,2017-04-24 08:09:00,
2017-04-24 04:14:00,42.8,37.4,30.10,SSE,156,0.0,0.0,81,0.00,,CLR,0.00,VWS V15.00,2017-04-24 08:14:00,
2017-04-24 04:19:00,42.6,37.2,30.11,SSE,156,0.0,0.0,81,0.00,,CLR,0.00,VWS V15.00,2017-04-24 08:19:00,
2017-04-24 04:24:00,42.5,37.1,30.11,SSE,156,0.0,0.0,81,0.00,,CLR,0.00,VWS V15.00,2017-04-24 08:24:00,
2017-04-24 04:29:00,42.2,36.8,30.11,SSE,156,0.0,0.0,81,0.00,,CLR,0.00,VWS V15.00,2017-04-24 08:29:00,
2017-04-24 04:34:00,42.1,37.0,30.11,SSE,156,0.0,0.0,82,0.00,,CLR,0.00,VWS V15.00,2017-04-24 08:34:00,
2017-04-24 04:39:00,42.1,37.0,30.11,SSE,156,0.0,0.0,82,0.00,,CLR,0.00,VWS V15.00,2017-04-24 08:39:00,
2017-04-24 04:44:00,41.9,36.8,30.11,SSE,156,0.0,0.0,82,0.00,,CLR,0.00,VWS V15.00,2017-04-24 08:44:00,
2017-04-24 04:49:00,41.9,37.1,30.11,SSE,156,0.0,0.0,83,0.00,,CLR,0.00,VWS V15.00,2017-04-24 08:49:00,
2017-04-24 04:54:00,41.9,37.1,30.11,SSE,156,0.0,1.0,83,0.00,,CLR,0.00,VWS V15.00,2017-04-24 08:54:00,
2017-04-24 04:59:00,41.9,37.1,30.11,SSE,156,0.0,0.0,83,0.00,,CLR,0.00,VWS V15.00,2017-04-24 08:59:00,
2017-04-24 05:04:00,41.8,37.3,30.11,SSE,156,0.0,0.0,84,0.00,,CLR,0.00,VWS V15.00,2017-04-24 09:04:00,
2017-04-24 05:09:00,41.8,37.3,30.11,SSE,156,0.0,0.0,84,0.00,,CLR,0.00,VWS V15.00,2017-04-24 09:09:00,
2017-04-24 05:14:00,41.6,37.4,30.11,SSE,156,0.0,0.0,85,0.00,,CLR,0.00,VWS V15.00,2017-04-24 09:14:00,
2017-04-24 05:19:00,41.6,37.4,30.12,SSE,156,0.0,0.0,85,0.00,,CLR,0.00,VWS V15.00,2017-04-24 09:19:00,
2017-04-24 05:24:00,41.6,37.4,30.12,SSE,156,0.0,0.0,85,0.00,,CLR,0.00,VWS V15.00,2017-04-24 09:24:00,
2017-04-24 05:29:00,41.6,37.4,30.12,SSE,156,0.0,0.0,85,0.00,,CLR,0.00,VWS V15.00,2017-04-24 09:29:00,
2017-04-24 05:34:00,41.6,37.4,30.12,SSE,156,0.0,0.0,85,0.00,,CLR,0.00,VWS V15.00,2017-04-24 09:34:00,
2017-04-24 05:39:00,41.5,37.6,30.12,SSE,156,0.0,0.0,86,0.00,,CLR,0.00,VWS V15.00,2017-04-24 09:39:00,
2017-04-24 05:44:00,41.5,37.6,30.12,SSE,156,0.0,0.0,86,0.00,,CLR,0.00,VWS V15.00,2017-04-24 09:44:00,
2017-04-24 05:49:00,41.5,37.6,30.12,SSE,156,0.0,0.0,86,0.00,,CLR,0.00,VWS V15.00,2017-04-24 09:49:00,
2017-04-24 05:54:00,41.5,37.6,30.12,SSE,156,0.0,0.0,86,0.00,,CLR,0.00,VWS V15.00,2017-04-24 09:54:00,
2017-04-24 05:59:00,41.5,37.6,30.12,SSE,156,0.0,0.0,86,0.00,,CLR,0.00,VWS V15.00,2017-04-24 09:59:00,
2017-04-24 06:04:00,41.5,37.9,30.12,SSE,156,0.0,0.0,87,0.00,,CLR,0.00,VWS V15.00,2017-04-24 10:04:00,
2017-04-24 06:09:00,41.3,37.7,30.12,SSE,156,0.0,0.0,87,0.00,,CLR,0.00,VWS V15.00,2017-04-24 10:09:00,
2017-04-24 06:14:00,41.3,37.7,30.12,SSE,156,0.0,0.0,87,0.00,,CLR,0.00,VWS V15.00,2017-04-24 10:14:00,
2017-04-24 06:19:00,41.2,37.6,30.12,SSE,164,0.0,0.0,87,0.00,,CLR,0.00,VWS V15.00,2017-04-24 10:19:00,
2017-04-24 06:24:00,41.2,37.6,30.12,SSE,164,0.0,0.0,87,0.00,,CLR,0.00,VWS V15.00,2017-04-24 10:24:00,
2017-04-24 06:29:00,41.1,37.5,30.12,SSE,164,0.0,0.0,87,0.00,,CLR,0.00,VWS V15.00,2017-04-24 10:29:00,
2017-04-24 06:34:00,40.9,37.3,30.13,SSE,164,0.0,0.0,87,0.00,,CLR,0.00,VWS V15.00,2017-04-24 10:34:00,
2017-04-24 06:39:00,40.9,37.3,30.13,SSE,164,0.0,0.0,87,0.00,,CLR,0.00,VWS V15.00,2017-04-24 10:39:00,
2017-04-24 06:44:00,40.8,37.2,30.13,SSE,164,0.0,0.0,87,0.00,,CLR,0.00,VWS V15.00,2017-04-24 10:44:00,
2017-04-24 06:49:00,40.6,37.0,30.14,SSE,164,0.0,0.0,87,0.00,,CLR,0.00,VWS V15.00,2017-04-24 10:49:00,
2017-04-24 06:54:00,40.6,37.0,30.14,SSE,164,0.0,0.0,87,0.00,,CLR,0.00,VWS V15.00,2017-04-24 10:54:00,
2017-04-24 06:59:00,40.5,36.9,30.14,SSE,164,0.0,0.0,87,0.00,,CLR,0.00,VWS V15.00,2017-04-24 10:59:00,
2017-04-24 07:04:00,40.5,36.9,30.15,SSE,164,0.0,0.0,87,0.00,,CLR,0.00,VWS V15.00,2017-04-24 11:04:00,
2017-04-24 07:09:00,40.5,36.9,30.15,SSE,164,0.0,0.0,87,0.00,,CLR,0.00,VWS V15.00,2017-04-24 11:09:00,
2017-04-24 07:14:00,40.3,36.8,30.15,SSE,164,0.0,0.0,87,0.00,,CLR,0.00,VWS V15.00,2017-04-24 11:14:00,
2017-04-24 07:19:00,40.6,37.3,30.15,SSE,164,0.0,0.0,88,0.00,,CLR,0.00,VWS V15.00,2017-04-24 11:19:00,
2017-04-24 07:24:00,40.6,37.3,30.15,SSE,164,0.0,0.0,88,0.00,,CLR,0.00,VWS V15.00,2017-04-24 11:24:00,
2017-04-24 07:29:00,40.6,37.3,30.15,SSE,164,0.0,0.0,88,0.00,,CLR,0.00,VWS V15.00,2017-04-24 11:29:00,
2017-04-24 07:34:00,40.6,37.3,30.16,SSE,164,0.0,0.0,88,0.00,,CLR,0.00,VWS V15.00,2017-04-24 11:34:00,
2017-04-24 07:39:00,40.8,37.5,30.16,SSE,164,0.0,0.0,88,0.00,,CLR,0.00,VWS V15.00,2017-04-24 11:39:00,
2017-04-24 07:44:00,41.1,38.1,30.16,SSE,164,0.0,0.0,89,0.00,,CLR,0.00,VWS V15.00,2017-04-24 11:44:00,
2017-04-24 07:49:00,41.8,39.1,30.16,SSE,164,0.0,0.0,90,0.00,,CLR,0.00,VWS V15.00,2017-04-24 11:49:00,
2017-04-24 07:59:00,43.2,40.2,30.16,SSE,164,0.0,0.0,89,0.00,,CLR,0.00,VWS V15.00,2017-04-24 11:59:00,
2017-04-24 08:04:00,43.9,40.9,30.17,SSE,164,0.0,0.0,89,0.00,,CLR,0.00,VWS V15.00,2017-04-24 12:04:00,
2017-04-24 08:09:00,44.5,41.5,30.17,SSE,164,0.0,0.0,89,0.00,,CLR,0.00,VWS V15.00,2017-04-24 12:09:00,
2017-04-24 08:14:00,44.6,41.0,30.17,SSE,164,0.0,0.0,87,0.00,,CLR,0.00,VWS V15.00,2017-04-24 12:14:00,
2017-04-24 08:19:00,45.4,41.5,30.17,SSE,164,0.0,0.0,86,0.00,,CLR,0.00,VWS V15.00,2017-04-24 12:19:00,
2017-04-24 08:24:00,45.8,41.5,30.17,SSE,164,0.0,1.0,85,0.00,,CLR,0.00,VWS V15.00,2017-04-24 12:24:00,
2017-04-24 08:29:00,46.2,42.0,30.17,SSE,164,0.0,0.0,85,0.00,,CLR,0.00,VWS V15.00,2017-04-24 12:29:00,
2017-04-24 08:34:00,47.0,42.4,30.18,SSE,164,0.0,0.0,84,0.00,,CLR,0.00,VWS V15.00,2017-04-24 12:34:00,
2017-04-24 08:39:00,47.6,42.4,30.18,SSE,164,0.0,0.0,82,0.00,,CLR,0.00,VWS V15.00,2017-04-24 12:39:00,
2017-04-24 08:45:00,48.0,42.5,30.18,SSE,164,0.0,0.0,81,0.00,,CLR,0.00,VWS V15.00,2017-04-24 12:45:00,
2017-04-24 08:50:00,48.6,42.7,30.18,SSE,164,0.0,0.0,80,0.00,,CLR,0.00,VWS V15.00,2017-04-24 12:50:00,
2017-04-24 08:55:00,48.9,42.7,30.18,SSE,164,0.0,0.0,79,0.00,,CLR,0.00,VWS V15.00,2017-04-24 12:55:00,
2017-04-24 09:00:00,49.2,42.6,30.18,SSE,164,0.0,0.0,78,0.00,,CLR,0.00,VWS V15.00,2017-04-24 13:00:00,
2017-04-24 09:05:00,49.5,42.9,30.17,SSE,164,0.0,0.0,78,0.00,,CLR,0.00,VWS V15.00,2017-04-24 13:05:00,
2017-04-24 09:10:00,49.9,43.3,30.17,SSE,164,0.0,0.0,78,0.00,,CLR,0.00,VWS V15.00,2017-04-24 13:10:00,
2017-04-24 09:15:00,50.1,42.8,30.17,SSE,164,0.0,0.0,76,0.00,,CLR,0.00,VWS V15.00,2017-04-24 13:15:00,
2017-04-24 09:20:00,50.7,43.8,30.18,SSE,164,0.0,0.0,77,0.00,,CLR,0.00,VWS V15.00,2017-04-24 13:20:00,
2017-04-24 09:25:00,51.4,44.1,30.18,SSE,164,0.0,0.0,76,0.00,,CLR,0.00,VWS V15.00,2017-04-24 13:25:00,
2017-04-24 09:30:00,51.6,44.0,30.18,SSE,164,0.0,0.0,75,0.00,,CLR,0.00,VWS V15.00,2017-04-24 13:30:00,
2017-04-24 09:35:00,52.5,44.5,30.18,SSE,164,0.0,0.0,74,0.00,,CLR,0.00,VWS V15.00,2017-04-24 13:35:00,
2017-04-24 09:40:00,52.6,43.8,30.18,SSE,162,0.0,1.0,72,0.00,,CLR,0.00,VWS V15.00,2017-04-24 13:40:00,
2017-04-24 09:45:00,53.1,44.7,30.18,SSE,162,0.0,0.0,73,0.00,,CLR,0.00,VWS V15.00,2017-04-24 13:45:00,
2017-04-24 09:50:00,53.1,44.3,30.17,SSE,162,0.0,0.0,72,0.00,,CLR,0.00,VWS V15.00,2017-04-24 13:50:00,
2017-04-24 09:51:00,53.1,44.0,30.17,SSE,162,0.0,0.0,71,0.00,,CLR,0.00,VWS V15.00,2017-04-24 13:51:00,
2017-04-24 09:56:00,53.5,44.7,30.17,SSE,162,0.0,0.0,72,0.00,,CLR,0.00,VWS V15.00,2017-04-24 13:56:00,
2017-04-24 10:01:00,54.1,45.7,30.18,SSE,162,0.0,0.0,73,0.00,,CLR,0.00,VWS V15.00,2017-04-24 14:01:00,
2017-04-24 10:06:00,54.7,45.5,30.18,SSE,162,0.0,0.0,71,0.00,,CLR,0.00,VWS V15.00,2017-04-24 14:06:00,
2017-04-24 10:11:00,54.7,45.1,30.18,SSE,162,0.0,0.0,70,0.00,,CLR,0.00,VWS V15.00,2017-04-24 14:11:00,
2017-04-24 10:16:00,55.0,45.0,30.18,SSE,162,0.0,1.0,69,0.00,,CLR,0.00,VWS V15.00,2017-04-24 14:16:00,
2017-04-24 10:21:00,55.6,45.2,30.18,SW,218,0.0,3.0,68,0.00,,CLR,0.00,VWS V15.00,2017-04-24 14:21:00,
2017-04-24 10:26:00,56.2,46.2,30.18,SW,218,0.0,1.0,69,0.00,,CLR,0.00,VWS V15.00,2017-04-24 14:26:00,
2017-04-24 10:31:00,57.2,46.8,30.17,SW,218,0.0,0.0,68,0.00,,CLR,0.00,VWS V15.00,2017-04-24 14:31:00,
2017-04-24 10:36:00,57.2,45.2,30.17,SW,218,0.0,1.0,64,0.00,,CLR,0.00,VWS V15.00,2017-04-24 14:36:00,
2017-04-24 10:41:00,57.5,45.4,30.17,SE,125,0.0,1.0,64,0.00,,CLR,0.00,VWS V15.00,2017-04-24 14:41:00,
2017-04-24 10:46:00,57.8,45.3,30.17,SE,130,0.0,1.0,63,0.00,,CLR,0.00,VWS V15.00,2017-04-24 14:46:00,
2017-04-24 10:51:00,58.7,46.2,30.17,SE,131,0.0,1.0,63,0.00,,CLR,0.00,VWS V15.00,2017-04-24 14:51:00,
2017-04-24 10:56:00,59.5,46.5,30.17,SW,217,1.0,3.0,62,0.00,,CLR,0.00,VWS V15.00,2017-04-24 14:56:00,
2017-04-24 11:01:00,60.2,46.7,30.16,SW,217,0.0,2.0,61,0.00,,CLR,0.00,VWS V15.00,2017-04-24 15:01:00,
2017-04-24 11:06:00,60.5,44.7,30.16,SSW,207,0.0,2.0,56,0.00,,CLR,0.00,VWS V15.00,2017-04-24 15:06:00,
2017-04-24 11:11:00,61.0,44.7,30.16,SSW,208,0.0,2.0,55,0.00,,CLR,0.00,VWS V15.00,2017-04-24 15:11:00,
2017-04-24 11:16:00,61.2,44.9,30.16,SSW,211,0.0,1.0,55,0.00,,CLR,0.00,VWS V15.00,2017-04-24 15:16:00,
2017-04-24 11:21:00,61.2,44.4,30.16,SSW,209,1.0,2.0,54,0.00,,CLR,0.00,VWS V15.00,2017-04-24 15:21:00,
2017-04-24 11:26:00,61.3,45.5,30.16,SSW,209,0.0,1.0,56,0.00,,CLR,0.00,VWS V15.00,2017-04-24 15:26:00,
2017-04-24 11:31:00,62.3,46.4,30.15,SSE,155,0.0,2.0,56,0.00,,CLR,0.00,VWS V15.00,2017-04-24 15:31:00,
2017-04-24 11:36:00,62.6,45.7,30.15,SSE,155,0.0,0.0,54,0.00,,CLR,0.00,VWS V15.00,2017-04-24 15:36:00,
2017-04-24 11:41:00,62.9,44.5,30.15,SSW,198,0.0,2.0,51,0.00,,CLR,0.00,VWS V15.00,2017-04-24 15:41:00,
2017-04-24 11:46:00,63.1,45.7,30.14,SSW,198,0.0,1.0,53,0.00,,CLR,0.00,VWS V15.00,2017-04-24 15:46:00,
2017-04-24 11:51:00,63.2,44.3,30.14,SSW,198,0.0,1.0,50,0.00,,CLR,0.00,VWS V15.00,2017-04-24 15:51:00,
2017-04-24 11:56:00,63.2,44.3,30.14,SSW,198,0.0,1.0,50,0.00,,CLR,0.00,VWS V15.00,2017-04-24 15:56:00,
2017-04-24 12:01:00,64.0,45.0,30.14,SSW,200,0.0,1.0,50,0.00,,CLR,0.00,VWS V15.00,2017-04-24 16:01:00,
2017-04-24 12:06:00,65.2,44.5,30.14,South,188,0.0,1.0,47,0.00,,CLR,0.00,VWS V15.00,2017-04-24 16:06:00,
2017-04-24 12:11:00,65.0,44.3,30.14,South,189,0.0,1.0,47,0.00,,CLR,0.00,VWS V15.00,2017-04-24 16:11:00,
2017-04-24 12:16:00,64.7,44.6,30.14,SW,217,0.0,1.0,48,0.00,,CLR,0.00,VWS V15.00,2017-04-24 16:16:00,
2017-04-24 12:21:00,65.3,45.7,30.14,WNW,294,2.0,2.0,49,0.00,,CLR,0.00,VWS V15.00,2017-04-24 16:21:00,
2017-04-24 12:26:00,65.3,44.0,30.14,WSW,258,0.0,3.0,46,0.00,,CLR,0.00,VWS V15.00,2017-04-24 16:26:00,
2017-04-24 12:31:00,66.0,45.8,30.14,West,259,2.0,2.0,48,0.00,,CLR,0.00,VWS V15.00,2017-04-24 16:31:00,
2017-04-24 12:36:00,66.0,43.5,30.14,West,259,1.0,1.0,44,0.00,,CLR,0.00,VWS V15.00,2017-04-24 16:36:00,
2017-04-24 12:41:00,66.8,43.6,30.14,West,259,0.0,1.0,43,0.00,,CLR,0.00,VWS V15.00,2017-04-24 16:41:00,
2017-04-24 12:46:00,66.6,42.8,30.14,WNW,286,0.0,2.0,42,0.00,,CLR,0.00,VWS V15.00,2017-04-24 16:46:00,
2017-04-24 12:51:00,66.4,43.8,30.14,WNW,286,2.0,2.0,44,0.00,,CLR,0.00,VWS V15.00,2017-04-24 16:51:00,
2017-04-24 12:56:00,66.4,42.0,30.14,WNW,286,0.0,0.0,41,0.00,,CLR,0.00,VWS V15.00,2017-04-24 16:56:00,
2017-04-24 13:01:00,66.9,43.1,30.14,WNW,286,0.0,1.0,42,0.00,,CLR,0.00,VWS V15.00,2017-04-24 17:01:00,
2017-04-24 13:06:00,66.8,41.7,30.14,West,278,0.0,2.0,40,0.00,,CLR,0.00,VWS V15.00,2017-04-24 17:06:00,
2017-04-24 13:11:00,66.4,40.0,30.14,SW,229,0.0,3.0,38,0.00,,CLR,0.00,VWS V15.00,2017-04-24 17:11:00,
2017-04-24 13:16:00,67.1,39.3,30.14,SSW,200,0.0,2.0,36,0.00,,CLR,0.00,VWS V15.00,2017-04-24 17:16:00,
2017-04-24 13:21:00,66.9,41.8,30.14,SW,218,0.0,1.0,40,0.00,,CLR,0.00,VWS V15.00,2017-04-24 17:21:00,
2017-04-24 13:26:00,67.4,42.3,30.14,SE,126,5.0,7.0,40,0.00,,CLR,0.00,VWS V15.00,2017-04-24 17:26:00,